ELY611 LLBG-UUDD

Flight info

Callsign ELY611
Flight time N/A
Altitude 38000
Route DAFNA DCT VELOX N71 ALSUS L620 VESAR UB545 OKLAM UL619 MAKOL DCT ARGES DCT KENIN DCT ROBTU DCT PODAN/N0482F390 DCT BESOT/N0480F380 DCT SUWGI/N0482F390 L735 VABER DCT LAUGA DCT IGORO/K0882F390 M864 DURTI N609 LIVDA N168 BILRU BILRU3L
Aircraft B772/H-SDE2E3FGHIJ5LORVWXY/LB1D1

Departure

Time 2026-05-08 06:50
Airport Ben Gurion International Airport (LLBG)

Arrival

Time N/A
Airport Domodedovo International Airport (UUDD)
Time Latitude Longitude Altitude Speed Heading
2026-05-08 06:12 32.00320 34.87629 124 ft 0 kts 316°
2026-05-08 06:35 32.00310 34.87640 119 ft 3 kts 316°
2026-05-08 06:36 32.00295 34.87657 119 ft 3 kts 313°
2026-05-08 06:36 32.00284 34.87672 119 ft 3 kts 316°
2026-05-08 06:36 32.00271 34.87684 119 ft 3 kts 350°
2026-05-08 06:36 32.00268 34.87685 119 ft 3 kts
2026-05-08 06:37 32.00258 34.87682 119 ft 0 kts 28°
2026-05-08 06:37 32.00270 34.87691 120 ft 3 kts 31°
2026-05-08 06:37 32.00288 34.87705 122 ft 3 kts 33°
2026-05-08 06:37 32.00301 34.87714 121 ft 0 kts 31°
2026-05-08 06:45 32.00307 34.87718 121 ft 5 kts 31°
2026-05-08 06:45 32.00377 34.87768 121 ft 18 kts 31°
2026-05-08 06:45 32.00490 34.87847 120 ft 17 kts 31°
2026-05-08 06:45 32.00594 34.87921 121 ft 17 kts 32°
2026-05-08 06:46 32.00698 34.87997 120 ft 19 kts 29°
2026-05-08 06:46 32.00816 34.88084 120 ft 22 kts 33°
2026-05-08 06:46 32.00952 34.88187 121 ft 24 kts 31°
2026-05-08 06:46 32.01100 34.88289 119 ft 26 kts 31°
2026-05-08 06:47 32.01272 34.88421 120 ft 31 kts 38°
2026-05-08 06:47 32.01412 34.88603 120 ft 30 kts 58°
2026-05-08 06:47 32.01491 34.88828 120 ft 30 kts 78°
2026-05-08 06:47 32.01530 34.89069 123 ft 30 kts 79°
2026-05-08 06:48 32.01555 34.89229 122 ft 30 kts 79°
2026-05-08 06:48 32.01588 34.89435 120 ft 21 kts 80°
2026-05-08 06:48 32.01613 34.89602 121 ft 19 kts 80°
2026-05-08 06:48 32.01686 34.89708 120 ft 17 kts 28°
2026-05-08 06:49 32.01803 34.89766 120 ft 16 kts 358°
2026-05-08 06:49 32.01838 34.89718 120 ft 6 kts 274°
2026-05-08 06:49 32.01833 34.89657 118 ft 15 kts 261°
2026-05-08 06:49 32.01793 34.89401 119 ft 58 kts 259°
2026-05-08 06:50 32.01681 34.88669 124 ft 122 kts 260°
2026-05-08 06:50 32.01495 34.87473 197 ft 168 kts 261°
2026-05-08 06:50 32.01259 34.86073 657 ft 179 kts 260°
2026-05-08 06:50 32.01021 34.84611 1336 ft 181 kts 260°
2026-05-08 06:51 32.00734 34.83166 2002 ft 189 kts 259°
2026-05-08 06:51 32.00404 34.81584 2304 ft 206 kts 258°
2026-05-08 06:51 32.00042 34.79883 2621 ft 220 kts 258°
2026-05-08 06:51 31.99813 34.78035 2746 ft 239 kts 277°
2026-05-08 06:52 32.00102 34.76070 2940 ft 252 kts 274°
2026-05-08 06:52 31.99641 34.74051 3322 ft 264 kts 237°
2026-05-08 06:52 31.98712 34.72202 3913 ft 262 kts 252°
2026-05-08 06:52 31.98665 34.70090 4491 ft 262 kts 286°
2026-05-08 06:53 31.99315 34.68065 4911 ft 269 kts 292°
2026-05-08 06:53 31.99975 34.65993 5519 ft 270 kts 289°
2026-05-08 06:53 32.00568 34.63889 6131 ft 273 kts 286°
2026-05-08 06:53 32.01117 34.61743 6712 ft 275 kts 284°
2026-05-08 06:54 32.01634 34.59562 7246 ft 277 kts 284°
2026-05-08 06:54 32.02460 34.57515 7626 ft 284 kts 311°
2026-05-08 06:54 32.04122 34.56274 8177 ft 288 kts 343°
2026-05-08 06:54 32.06093 34.55953 8689 ft 288 kts 353°
2026-05-08 06:55 32.08108 34.55700 9182 ft 292 kts 352°
2026-05-08 06:55 32.10125 34.55434 9829 ft 291 kts 352°
2026-05-08 06:55 32.12155 34.55165 10253 ft 299 kts 352°
2026-05-08 06:55 32.14284 34.54881 10388 ft 318 kts 352°
2026-05-08 06:56 32.16555 34.54577 10525 ft 338 kts 352°
2026-05-08 06:56 32.18960 34.54255 10682 ft 359 kts 352°
2026-05-08 06:56 32.21493 34.53916 11098 ft 370 kts 352°
2026-05-08 06:56 32.24066 34.53571 11837 ft 374 kts 352°
2026-05-08 06:57 32.26667 34.53222 12586 ft 378 kts 352°
2026-05-08 06:57 32.29300 34.52867 13384 ft 383 kts 352°
2026-05-08 06:57 32.31964 34.52507 14204 ft 387 kts 352°
2026-05-08 06:57 32.34649 34.52143 14996 ft 390 kts 352°
2026-05-08 06:58 32.37360 34.51775 15767 ft 394 kts 352°
2026-05-08 06:58 32.40104 34.51403 16519 ft 399 kts 352°
2026-05-08 06:58 32.42876 34.51026 17285 ft 404 kts 352°
2026-05-08 06:58 32.45687 34.50643 18033 ft 409 kts 352°
2026-05-08 06:59 32.48530 34.50255 18759 ft 413 kts 352°
2026-05-08 06:59 32.51403 34.49864 19442 ft 417 kts 352°
2026-05-08 06:59 32.54300 34.49469 20148 ft 421 kts 352°
2026-05-08 06:59 32.57225 34.49070 20821 ft 425 kts 352°
2026-05-08 07:00 32.60181 34.48666 21507 ft 429 kts 352°
2026-05-08 07:00 32.63160 34.48259 22175 ft 433 kts 351°
2026-05-08 07:00 32.66166 34.47848 22805 ft 437 kts 351°
2026-05-08 07:00 32.69204 34.47433 23413 ft 441 kts 351°
2026-05-08 07:01 32.72262 34.47014 23947 ft 445 kts 351°
2026-05-08 07:01 32.75345 34.46592 24489 ft 447 kts 351°
2026-05-08 07:01 32.78438 34.46168 25046 ft 448 kts 351°
2026-05-08 07:01 32.81534 34.45744 25593 ft 449 kts 351°
2026-05-08 07:02 32.84641 34.45318 26099 ft 450 kts 351°
2026-05-08 07:02 32.87760 34.44890 26541 ft 452 kts 352°
2026-05-08 07:02 32.90897 34.44458 26916 ft 456 kts 352°
2026-05-08 07:02 32.94061 34.44023 27347 ft 458 kts 352°
2026-05-08 07:03 32.97223 34.43588 27839 ft 458 kts 352°
2026-05-08 07:03 33.00392 34.43151 28284 ft 459 kts 352°
2026-05-08 07:03 33.03569 34.42713 28651 ft 461 kts 352°
2026-05-08 07:03 33.06767 34.42272 28939 ft 464 kts 352°
2026-05-08 07:04 33.09978 34.41829 29244 ft 466 kts 352°
2026-05-08 07:04 33.13204 34.41383 29550 ft 467 kts 352°
2026-05-08 07:04 33.16437 34.40936 29852 ft 468 kts 352°
2026-05-08 07:04 33.19676 34.40488 30114 ft 470 kts 352°
2026-05-08 07:05 33.22926 34.40038 30373 ft 470 kts 352°
2026-05-08 07:05 33.26149 34.39592 30884 ft 463 kts 352°
2026-05-08 07:05 33.29313 34.39155 31637 ft 450 kts 352°
2026-05-08 07:05 33.32371 34.38733 32462 ft 436 kts 352°
2026-05-08 07:06 33.35347 34.38322 33244 ft 425 kts 351°
2026-05-08 07:06 33.38256 34.37918 33870 ft 417 kts 351°
2026-05-08 07:06 33.41119 34.37520 34338 ft 412 kts 351°
2026-05-08 07:06 33.43968 34.37122 34503 ft 413 kts 351°
2026-05-08 07:07 33.46836 34.36720 34605 ft 416 kts 351°
2026-05-08 07:07 33.49718 34.36316 34738 ft 418 kts 351°
2026-05-08 07:07 33.52603 34.35913 34896 ft 418 kts 351°
2026-05-08 07:07 33.55499 34.35508 35028 ft 419 kts 351°
2026-05-08 07:08 33.61304 34.34697 35125 ft 419 kts 351°
2026-05-08 07:08 33.67079 34.33891 35130 ft 416 kts 351°
2026-05-08 07:09 33.72816 34.33088 35130 ft 415 kts 351°
2026-05-08 07:09 33.78548 34.32284 35131 ft 415 kts 351°
2026-05-08 07:10 33.84281 34.31478 35137 ft 415 kts 351°
2026-05-08 07:10 33.90027 34.30670 35135 ft 416 kts 351°
2026-05-08 07:11 33.95780 34.29860 35125 ft 417 kts 351°
2026-05-08 07:11 34.01540 34.29048 35127 ft 417 kts 351°
2026-05-08 07:12 34.07301 34.28234 35137 ft 417 kts 351°
2026-05-08 07:12 34.13066 34.27419 35136 ft 417 kts 351°
2026-05-08 07:13 34.18787 34.26609 35127 ft 416 kts 351°
2026-05-08 07:13 34.24540 34.25794 35138 ft 416 kts 351°
2026-05-08 07:14 34.30288 34.24978 35130 ft 416 kts 351°
2026-05-08 07:14 34.36037 34.24160 35129 ft 416 kts 351°
2026-05-08 07:15 34.41782 34.23342 35133 ft 416 kts 350°
2026-05-08 07:15 34.47528 34.22523 35134 ft 416 kts 350°
2026-05-08 07:16 34.53280 34.21702 35146 ft 416 kts 350°
2026-05-08 07:16 34.59028 34.20880 35136 ft 416 kts 350°
2026-05-08 07:17 34.64779 34.20057 35134 ft 416 kts 350°
2026-05-08 07:17 34.70530 34.19232 35136 ft 416 kts 350°
2026-05-08 07:18 34.76283 34.18406 35139 ft 416 kts 350°
2026-05-08 07:18 34.82033 34.17580 35138 ft 416 kts 350°
2026-05-08 07:19 34.87792 34.16751 35139 ft 417 kts 350°
2026-05-08 07:19 34.93550 34.15921 35140 ft 417 kts 350°
2026-05-08 07:20 34.99313 34.15089 35136 ft 417 kts 350°
2026-05-08 07:20 35.05081 34.14255 35137 ft 417 kts 350°
2026-05-08 07:21 35.10851 34.13419 35141 ft 418 kts 350°
2026-05-08 07:21 35.16621 34.12583 35141 ft 418 kts 349°
2026-05-08 07:22 35.22397 34.11744 35142 ft 418 kts 349°
2026-05-08 07:22 35.28175 34.10904 35144 ft 418 kts 349°
2026-05-08 07:23 35.33953 34.10062 35143 ft 418 kts 349°
2026-05-08 07:23 35.39738 34.09219 35148 ft 419 kts 349°
2026-05-08 07:24 35.45531 34.08373 35146 ft 419 kts 349°
2026-05-08 07:24 35.51324 34.07525 35151 ft 419 kts 349°
2026-05-08 07:25 35.57122 34.06676 35151 ft 420 kts 349°
2026-05-08 07:26 35.65820 34.05400 35151 ft 420 kts 349°
2026-05-08 07:26 35.71622 34.04547 35150 ft 420 kts 349°
2026-05-08 07:27 35.77423 34.03693 35149 ft 420 kts 349°
2026-05-08 07:27 35.83232 34.02836 35147 ft 420 kts 349°
2026-05-08 07:28 35.88984 34.01684 35156 ft 417 kts 341°
2026-05-08 07:28 35.94416 33.99255 35156 ft 415 kts 334°
2026-05-08 07:29 35.99437 33.95785 35157 ft 414 kts 328°
2026-05-08 07:29 36.04325 33.92014 35152 ft 414 kts 328°
2026-05-08 07:30 36.09193 33.88280 35152 ft 415 kts 328°
2026-05-08 07:30 36.14106 33.84540 35158 ft 415 kts 328°
2026-05-08 07:31 36.19018 33.80802 35155 ft 414 kts 328°
2026-05-08 07:31 36.23132 33.77668 35160 ft 414 kts 328°
2026-05-08 07:32 36.28042 33.73923 35160 ft 414 kts 328°
2026-05-08 07:32 36.32958 33.70181 35166 ft 415 kts 328°
2026-05-08 07:33 36.37872 33.66436 35167 ft 414 kts 328°
2026-05-08 07:33 36.42781 33.62689 35175 ft 414 kts 328°
2026-05-08 07:34 36.47677 33.58944 35170 ft 413 kts 328°
2026-05-08 07:34 36.52572 33.55194 35183 ft 413 kts 328°
2026-05-08 07:35 36.57460 33.51445 35184 ft 413 kts 327°
2026-05-08 07:35 36.62344 33.47692 35193 ft 413 kts 327°
2026-05-08 07:36 36.67233 33.43929 35191 ft 413 kts 327°
2026-05-08 07:36 36.72122 33.40161 35196 ft 413 kts 327°
2026-05-08 07:37 36.77007 33.36390 35209 ft 413 kts 327°
2026-05-08 07:37 36.81885 33.32620 35213 ft 412 kts 327°
2026-05-08 07:38 36.86519 33.28409 35210 ft 413 kts 320°
2026-05-08 07:38 36.90632 33.23408 35220 ft 413 kts 314°
2026-05-08 07:39 36.94517 33.18097 35220 ft 414 kts 314°
2026-05-08 07:39 36.98399 33.12772 35227 ft 414 kts 314°
2026-05-08 07:40 37.02291 33.07447 35226 ft 415 kts 314°
2026-05-08 07:40 37.06184 33.02126 35228 ft 414 kts 314°
2026-05-08 07:41 37.10074 32.96803 35230 ft 414 kts 314°
2026-05-08 07:41 37.13955 32.91482 35228 ft 413 kts 314°
2026-05-08 07:42 37.17824 32.86169 35227 ft 412 kts 314°
2026-05-08 07:42 37.21686 32.80858 35231 ft 412 kts 314°
2026-05-08 07:43 37.25545 32.75543 35228 ft 412 kts 314°
2026-05-08 07:43 37.29400 32.70224 35228 ft 412 kts 313°
2026-05-08 07:44 37.33255 32.64897 35227 ft 412 kts 314°
2026-05-08 07:44 37.37104 32.59567 35234 ft 412 kts 313°
2026-05-08 07:45 37.40950 32.54234 35235 ft 411 kts 313°
2026-05-08 07:45 37.44789 32.48902 35238 ft 411 kts 313°
2026-05-08 07:46 37.48626 32.43565 35233 ft 411 kts 313°
2026-05-08 07:46 37.52459 32.38223 35236 ft 411 kts 313°
2026-05-08 07:47 37.56292 32.32873 35236 ft 411 kts 313°
2026-05-08 07:47 37.60121 32.27519 35236 ft 411 kts 313°
2026-05-08 07:48 37.63948 32.22159 35238 ft 411 kts 313°
2026-05-08 07:48 37.67777 32.16790 35236 ft 412 kts 313°
2026-05-08 07:49 37.71612 32.11410 35242 ft 413 kts 313°
2026-05-08 07:49 37.75453 32.06010 35240 ft 413 kts 313°
2026-05-08 07:50 37.79290 32.00605 35239 ft 413 kts 313°
2026-05-08 07:50 37.83123 31.95198 35242 ft 413 kts 313°
2026-05-08 07:51 37.86953 31.89786 35245 ft 412 kts 313°
2026-05-08 07:51 37.90771 31.84380 35246 ft 412 kts 313°
2026-05-08 07:52 37.94586 31.78970 35245 ft 411 kts 313°
2026-05-08 07:52 37.98393 31.73562 35250 ft 411 kts 313°
2026-05-08 07:53 38.02194 31.68153 35250 ft 411 kts 313°
2026-05-08 07:53 38.05998 31.62731 35248 ft 412 kts 313°
2026-05-08 07:54 38.09806 31.57295 35248 ft 412 kts 313°
2026-05-08 07:54 38.13613 31.51848 35259 ft 413 kts 313°
2026-05-08 07:55 38.17423 31.46385 35250 ft 413 kts 313°
2026-05-08 07:55 38.21235 31.40908 35253 ft 414 kts 312°
2026-05-08 07:56 38.25043 31.35428 35251 ft 414 kts 312°
2026-05-08 07:56 38.28852 31.29941 35249 ft 413 kts 312°
2026-05-08 07:57 38.32655 31.24448 35253 ft 413 kts 312°
2026-05-08 07:57 38.36450 31.18958 35251 ft 412 kts 312°
2026-05-08 07:58 38.40236 31.13472 35250 ft 412 kts 312°
2026-05-08 07:58 38.44018 31.07984 35239 ft 411 kts 312°
2026-05-08 07:59 38.48312 31.03133 35251 ft 411 kts 324°
2026-05-08 07:59 38.53243 30.99405 35237 ft 414 kts 333°
2026-05-08 08:00 38.58643 30.96766 35244 ft 417 kts 336°
2026-05-08 08:00 38.64101 30.94218 35238 ft 418 kts 336°
2026-05-08 08:01 38.69553 30.91634 35234 ft 418 kts 336°
2026-05-08 08:01 38.74992 30.89024 35235 ft 418 kts 335°
2026-05-08 08:02 38.80439 30.86394 35234 ft 418 kts 335°
2026-05-08 08:02 38.85883 30.83761 35229 ft 418 kts 335°
2026-05-08 08:03 38.91320 30.81127 35228 ft 418 kts 335°
2026-05-08 08:03 38.96760 30.78487 35231 ft 418 kts 335°
2026-05-08 08:04 39.02207 30.75840 35221 ft 419 kts 335°
2026-05-08 08:04 39.07656 30.73188 35217 ft 419 kts 335°
2026-05-08 08:05 39.13104 30.70530 35211 ft 419 kts 335°
2026-05-08 08:05 39.18558 30.67867 35219 ft 419 kts 335°
2026-05-08 08:06 39.24009 30.65201 35213 ft 419 kts 335°
2026-05-08 08:06 39.29460 30.62530 35207 ft 419 kts 335°
2026-05-08 08:07 39.34912 30.59853 35208 ft 419 kts 335°
2026-05-08 08:07 39.40368 30.57170 35201 ft 420 kts 335°
2026-05-08 08:08 39.45825 30.54482 35201 ft 420 kts 335°
2026-05-08 08:08 39.51290 30.51786 35210 ft 421 kts 335°
2026-05-08 08:09 39.56727 30.48974 35210 ft 420 kts 332°
2026-05-08 08:09 39.61165 30.46407 35224 ft 421 kts 332°
2026-05-08 08:10 39.66500 30.43268 35225 ft 422 kts 332°
2026-05-08 08:10 39.71852 30.40127 35226 ft 422 kts 332°
2026-05-08 08:11 39.77214 30.36989 35236 ft 423 kts 332°
2026-05-08 08:11 39.82587 30.33844 35231 ft 423 kts 332°
2026-05-08 08:12 39.87963 30.30694 35226 ft 424 kts 332°
2026-05-08 08:12 39.93344 30.27535 35208 ft 425 kts 332°
2026-05-08 08:13 39.98738 30.24363 35202 ft 426 kts 332°
2026-05-08 08:13 40.04142 30.21179 35189 ft 426 kts 332°
2026-05-08 08:14 40.09554 30.17985 35167 ft 427 kts 332°
2026-05-08 08:14 40.14972 30.14781 35157 ft 428 kts 332°
2026-05-08 08:15 40.20399 30.11566 35154 ft 428 kts 332°
2026-05-08 08:15 40.25828 30.08346 35153 ft 429 kts 332°
2026-05-08 08:16 40.31264 30.05115 35150 ft 429 kts 332°
2026-05-08 08:16 40.36705 30.01875 35149 ft 429 kts 332°
2026-05-08 08:17 40.42145 29.98630 35139 ft 430 kts 331°
2026-05-08 08:17 40.47594 29.95373 35133 ft 430 kts 332°
2026-05-08 08:18 40.53048 29.92108 35135 ft 431 kts 332°
2026-05-08 08:18 40.58506 29.88834 35135 ft 432 kts 332°
2026-05-08 08:19 40.63977 29.85547 35134 ft 433 kts 332°
2026-05-08 08:19 40.69461 29.82247 35133 ft 434 kts 331°